This is the latest recevied weather packets stored in our database for station/object IZ2MHJ-3. If no packets are shown the sender has not sent any weather packets the latest 10 day(s).
| Time | Temp. | Humidity | Pressure | Rain* | Wind** | Luminosity | Snow |
|---|---|---|---|---|---|---|---|
| 1777637429 | 22.78° C | 27% | 1028.7 hPa | - | - | - | - |
| 1777636229 | 20.56° C | 28% | 1029 hPa | - | - | - | - |
| 1777635028 | 20.56° C | 29% | 1029.2 hPa | - | - | - | - |
| 1777633828 | 20° C | 28% | 1029.5 hPa | - | - | - | - |
| 1777632628 | 21.11° C | 27% | 1029.5 hPa | - | - | - | - |
| 1777631427 | 18.33° C | 29% | 1029.9 hPa | - | - | - | - |
| 1777630227 | 19.44° C | 29% | 1030 hPa | - | - | - | - |
| 1777629027 | 18.33° C | 29% | 1030.1 hPa | - | - | - | - |
| 1777627826 | 18.89° C | 28% | 1030.2 hPa | - | - | - | - |
| 1777626626 | 17.22° C | 29% | 1030.3 hPa | - | - | - | - |
| 1777625426 | 17.22° C | 29% | 1030.4 hPa | - | - | - | - |
| 1777624226 | 16.11° C | 29% | 1030.4 hPa | - | - | - | - |
| 1777623025 | 16.67° C | 30% | 1030.4 hPa | - | - | - | - |
| 1777621825 | 15° C | 32% | 1030.5 hPa | - | - | - | - |
| 1777620624 | 14.44° C | 33% | 1030.4 hPa | - | - | - | - |
| 1777619424 | 15° C | 35% | 1030.2 hPa | - | - | - | - |
| 1777618224 | 14.44° C | 35% | 1030.1 hPa | - | - | - | - |
| 1777617024 | 15° C | 39% | 1029.8 hPa | - | - | - | - |
| 1777615823 | 13.33° C | 43% | 1029.8 hPa | - | - | - | - |
| 1777614623 | 12.22° C | 53% | 1029.8 hPa | - | - | - | - |
| 1777613423 | 11.67° C | 59% | 1029.7 hPa | - | - | - | - |
| 1777612222 | 11.67° C | 61% | 1029.7 hPa | - | - | - | - |
| 1777611022 | 11.11° C | 57% | 1029.5 hPa | - | - | - | - |
| 1777609822 | 10.56° C | 59% | 1029.3 hPa | - | - | - | - |
| 1777608621 | 10.56° C | 60% | 1029.2 hPa | - | - | - | - |
* Rain since midnight (hover to see other rain measurements)
** Current wind speed in m/s (hover to see current wind gust speed)